ARIANE 44LP DEB, 28040

Orbit data source: Space-Track

ARIANE 44LP DEB, 28040 is space debris in HEO originally from a launch on Sat, 02 Mar 1991 UTC launched from the French Guiana (FRGUI). Debris objects in space refer to the collection of defunct objects orbiting the Earth. Examples of debris include non-operational satellites, rocket bodies, and fragments generated from explosions, collisions, or faulty payload assembly.

Loading next visibility...
Identifier
28040, 1991-015P
Orbit
HEO
Country
Flag of FRFR
Related business
Manufacturer
Unknown
Mission
Spacecraft
Bus & Motor
Unknown
Mass
Unknown
Launch date (UTC)
1991-03-02 (35 years ago)
Launch vehicle
Unknown
Launch site
French Guiana (FRGUI)
Object type
Payload
Rocket body
Debris
Shape & HBR
Unknown shape, 1.1 m
Radar Cross Section
Medium (>0.1 m² and <1 m²)

Expand to show TLE details & history
Last TLE update: 20 hours ago

TLE from 20 hours ago
0 ARIANE 44LP DEB
1 28040U 91015P   25348.79858997 -.00000042  00000-0  00000-0 0  9991
2 28040   7.9925 341.8440 6440431 339.7403 166.3565  2.76508146125439
Epoch: 2025-12-14T19:09Z
TLE epoch observation values (Epoch: 2025-12-14T19:09:58.173Z)
Latitude
3.26853°
Longitude
126.68163°
Altitude
28,714.39 km
Speed
2.032 km/s
True Right ascension
09h 11m 31s
True Declination
3° 15' 52"
Sunlit
Object was in daylight at epoch
Visualization orbit readout
Latitude
Unknown
Longitude
Unknown
Altitude
Unknown
Speed
Unknown
Apparent Right ascension
Unknown
Apparent Declination
Unknown
Sunlit
N/A
Visualization observer readout
Local Sidereal Time
13:25:44
Azimuth
Unknown
Elevation
Unknown
Doppler factor
Unknown
Orbital elements
Apogee altitude
28,880.614 km
Perigee altitude
1,255.845 km
Semi-major axis
21,446.367 km
Eccentricity
0.64404
Inclination
7.9925°
RAAN
341.844°
Arg. of periapsis
339.7403°
True anomaly
176.12789°
Mean anomaly
166.3565°
Eccentric anomaly
171.68985°
Mean motion
0.69105 °/min
Orbital period
520.94 mins
BSTAR
0
Loading maneuver chart data...
Computing Atmospheric mass density...

Documentation

Showing up to 5 results
|